• Join FlightAware (Why Join?)
  • Login
  • US Flag 
08:33PM EDT


 

Airport Tracker/Info


-or-


 

Live Flight TrackerFlight Track Log ✈ AAL2360 ✈ 01-Jun-2013 ✈ KDFW - KORD

Flight Track Log - Related Links

Times and Time Zones

All times are in EDT time to prevent confusion due to time zone crossing. See the AAL2360 flight status page for this flight to view local times or setup timezone preferences in your user account.

Time Position Orientation Groundspeed Altitude Reporting Facility
EDT Latitude Longitude Course Direction KTS MPH feet Rate Location/Type
03:41PM 32.9167 -97.0333 357° North 169 194 1,100  Level Dallas / Fort Worth TRACON
03:42PM 32.9333 -97.0167 40° Northeast 184 212 2,200 1,680 Climbing Dallas / Fort Worth TRACON
03:43PM 33.0000 -97.0000 12° North 269 310 3,800 2,280 Climbing Dallas / Fort Worth TRACON
03:44PM 32.8813 -96.8000 North  Level FlightAware Approximate
03:44PM 33.1311 -96.9544 16° North 298 343 8,400  Level Fort Worth Center
03:45PM 33.0100 -96.8000 North  Level FlightAware Approximate
03:45PM 33.2144 -96.9219 18° North 310 357 10,800  Level Fort Worth Center
03:46PM 33.1386 -96.8051 357° North  Level FlightAware Approximate
03:46PM 33.3039 -96.8767 23° Northeast 325 374 13,400  Level Fort Worth Center
03:47PM 33.4042 -96.8436 15° North 351 404 14,700 1,860 Climbing Fort Worth Center
03:48PM 33.5083 -96.8056 17° North 386 444 17,200 2,220 Climbing Fort Worth Center
03:49PM 33.6167 -96.7650 17° North 394 453 19,200 1,920 Climbing Fort Worth Center
03:50PM 33.7292 -96.7242 17° North 399 459 21,100 1,680 Climbing Fort Worth Center
03:51PM 33.8414 -96.6808 18° North 415 478 22,600 1,500 Climbing Fort Worth Center
03:52PM 33.9603 -96.6397 16° North 425 489 24,100 1,320 Climbing Fort Worth Center
03:53PM 34.0808 -96.5933 18° North 438 504 25,300 1,140 Climbing Fort Worth Center
03:54PM 34.1872 -96.5547 17° North 438 504 26,400 1,380 Climbing Fort Worth Center
03:55PM 34.3142 -96.5083 17° North 450 518 28,100 1,500 Climbing Fort Worth Center
03:56PM 34.4369 -96.4642 17° North 456 525 29,500 1,260 Climbing Fort Worth Center
03:57PM 34.5594 -96.4150 18° North 456 525 30,700 720 Climbing Fort Worth Center
03:58PM 34.6864 -96.3706 16° North 456 525 31,000 120 Climbing Fort Worth Center
03:59PM 34.8092 -96.3236 17° North 456 525 31,000  Level Fort Worth Center
04:00PM 34.9319 -96.2764 17° North 456 525 31,000  Level Fort Worth Center
04:01PM 35.0567 -96.2292 17° North 456 525 31,000  Level Fort Worth Center
04:02PM 35.1833 -96.1792 18° North 456 525 31,000  Level Fort Worth Center
04:03PM 35.3058 -96.1314 18° North 456 525 31,000  Level Fort Worth Center
04:04PM 35.3756 -96.1033 18° North 467 537 31,000  Level Kansas City Center
04:05PM 35.4975 -96.0583 17° North 469 540 31,000  Level Kansas City Center
04:06PM 35.6228 -96.0103 17° North 470 541 31,000  Level Kansas City Center
04:07PM 35.7489 -95.9631 17° North 471 542 31,000  Level Kansas City Center
04:08PM 35.8928 -95.8750 26° Northeast 478 550 31,000  Level Kansas City Center
04:09PM 36.0067 -95.7900 31° Northeast 478 550 31,000  Level Kansas City Center
04:10PM 36.1181 -95.7072 31° Northeast 474 545 31,000 -660 Level Kansas City Center
04:11PM 36.2306 -95.6269 30° Northeast 470 541 29,700 -1,020 Descending Kansas City Center
04:12PM 36.3361 -95.5492 31° Northeast 453 521 29,000 -360 Descending Kansas City Center
04:13PM 36.4428 -95.4697 31° Northeast 449 517 29,000  Level Kansas City Center
04:14PM 36.5522 -95.3903 30° Northeast 452 520 29,000  Level Kansas City Center
04:15PM 36.6706 -95.3017 31° Northeast 447 514 29,000  Level Kansas City Center
04:16PM 36.7786 -95.2206 31° Northeast 449 517 29,000  Level Kansas City Center
04:17PM 36.8867 -95.1403 31° Northeast 451 519 29,000  Level Kansas City Center
04:18PM 36.9956 -95.0600 30° Northeast 453 521 29,000  Level Kansas City Center
04:19PM 37.1050 -94.9775 31° Northeast 457 526 29,000  Level Kansas City Center
04:20PM 37.2150 -94.8964 30° Northeast 457 526 29,000  Level Kansas City Center
04:21PM 37.3250 -94.8125 31° Northeast 460 529 29,000  Level Kansas City Center
04:22PM 37.4353 -94.7292 31° Northeast 462 532 29,000  Level Kansas City Center
04:23PM 37.5678 -94.6294 31° Northeast 462 532 29,000  Level Kansas City Center
04:24PM 37.6767 -94.5461 31° Northeast 465 535 29,000  Level Kansas City Center
04:25PM 37.7817 -94.4650 31° Northeast 464 534 29,000  Level Kansas City Center
04:26PM 37.8892 -94.3828 31° Northeast 465 535 29,000  Level Kansas City Center
04:27PM 38.0136 -94.2858 32° Northeast 471 542 29,000  Level Kansas City Center
04:28PM 38.1231 -94.2031 31° Northeast 477 549 29,000  Level Kansas City Center
04:29PM 38.2494 -94.1039 32° Northeast 478 550 29,000  Level Kansas City Center
04:30PM 38.3683 -94.0106 32° Northeast 480 552 29,000  Level Kansas City Center
04:32PM 38.4875 -93.9186 31° Northeast 484 557 29,000  Level Kansas City Center
04:33PM 38.5975 -93.8314 32° Northeast 487 560 29,000  Level Kansas City Center
04:34PM 38.7158 -93.7378 32° Northeast 483 556 29,000  Level Kansas City Center
04:35PM 38.8306 -93.6469 32° Northeast 482 555 29,000  Level Kansas City Center
04:36PM 38.9469 -93.5522 32° Northeast 488 562 29,000  Level Kansas City Center
04:37PM 39.0644 -93.4300 39° Northeast 495 570 29,000  Level Kansas City Center
04:38PM 39.1650 -93.3061 44° Northeast 498 573 29,000  Level Kansas City Center
04:39PM 39.2664 -93.1864 42° Northeast 498 573 29,000  Level Kansas City Center
04:40PM 39.3614 -93.0575 46° Northeast 504 580 29,000  Level Kansas City Center
04:41PM 39.4411 -92.9056 56° Northeast 510 587 29,000  Level Kansas City Center
04:42PM 39.5231 -92.7542 55° Northeast 517 595 29,000  Level Kansas City Center
04:43PM 39.6217 -92.5725 55° Northeast 519 597 29,000  Level Kansas City Center
04:44PM 39.7039 -92.4211 55° Northeast 520 598 29,000  Level Kansas City Center
04:45PM 39.7858 -92.2681 55° Northeast 522 601 29,000  Level Kansas City Center
04:46PM 39.8678 -92.1156 55° Northeast 523 602 29,000  Level Kansas City Center
04:47PM 39.9483 -91.9625 55° Northeast 522 601 29,000  Level Kansas City Center
04:48PM 40.0289 -91.8100 55° Northeast 520 598 29,000  Level Kansas City Center
04:49PM 40.1256 -91.6242 56° Northeast 521 600 29,000  Level Kansas City Center
04:50PM 40.2039 -91.4728 56° Northeast 514 592 29,000  Level Kansas City Center
04:51PM 40.2831 -91.3231 55° Northeast 507 583 29,000  Level Kansas City Center
04:52PM 40.3650 -91.1656 56° Northeast 507 583 29,000  Level Kansas City Center
04:52PM 40.3969 -91.1039 56° Northeast 508 585 29,000  Level Chicago Center
04:53PM 40.4769 -90.9481 56° Northeast 512 589 29,000  Level Chicago Center
04:54PM 40.5581 -90.7922 56° Northeast 515 593 29,000  Level Chicago Center
04:55PM 40.6850 -90.7061 27° Northeast 519 597 29,000  Level Chicago Center
04:57PM 40.8244 -90.7031 North 502 578 29,000  Level Chicago Center
04:58PM 40.9917 -90.7047 360° North 499 574 29,000  Level Chicago Center
04:59PM 41.1319 -90.7036 360° North 499 574 29,000  Level Chicago Center
05:00PM 41.2717 -90.7042 360° North 500 575 29,000  Level Chicago Center
05:01PM 41.4111 -90.7047 360° North 500 575 29,000  Level Chicago Center
05:02PM 41.5506 -90.7050 360° North 492 566 29,000  Level Chicago Center
05:03PM 41.6844 -90.7039 360° North 488 562 29,000  Level Chicago Center
05:04PM 41.8189 -90.7053 360° North 489 563 29,000  Level Chicago Center
05:05PM 41.9803 -90.7072 359° North 489 563 29,000 -180 Level Chicago Center
05:06PM 42.1131 -90.7092 359° North 484 557 28,700 -660 Descending Chicago Center
05:07PM 42.2336 -90.6392 23° Northeast 491 565 27,700 -960 Descending Chicago Center
05:08PM 42.2875 -90.4828 65° Northeast 474 545 26,800 -960 Descending Chicago Center
05:09PM 42.3231 -90.3181 74° East 463 533 25,800 -1,020 Descending Chicago Center
05:10PM 42.3544 -90.1561 75° East 452 520 24,800 -1,080 Descending Chicago Center
05:11PM 42.3914 -89.9667 75° East 441 507 23,600 -1,080 Descending Chicago Center
05:12PM 42.4206 -89.8231 75° East 434 499 22,700 -1,080 Descending Chicago Center
05:13PM 42.4558 -89.6392 75° East 433 498 21,400 -1,620 Descending Chicago Center
05:14PM 42.4636 -89.4794 86° East 430 495 19,400 -2,100 Descending Chicago Center
05:15PM 42.4497 -89.3219 97° East 424 488 17,200 -1,860 Descending Chicago Center
05:16PM 42.4367 -89.1708 97° East 407 468 15,700 -1,740 Descending Chicago Center
05:17PM 42.4233 -89.0264 97° East 390 449 13,700 -1,920 Descending Chicago Center
05:18PM 42.4106 -88.8828 97° East 385 443 11,800 -1,500 Descending Chicago Center
05:19PM 42.3972 -88.7494 98° East 364 419 10,700 -1,200 Descending Chicago Center
05:20PM 42.3856 -88.6147 97° East 316 364 9,400 -840 Descending Chicago Center
05:21PM 42.3586 -88.5092 109° East 305 351 9,000 -600 Descending Chicago Center
05:22PM 42.3186 -88.4175 121° Southeast 291 335 8,200 -900 Descending Chicago Center
05:23PM 42.2789 -88.3242 120° Southeast 291 335 7,200 -600 Descending Chicago Center
05:24PM 42.2403 -88.2314 119° Southeast 286 329 7,000 -480 Descending Chicago Center
05:25PM 42.1875 -88.1589 134° Southeast 281 323 6,300 -1,080 Descending Chicago Center
05:26PM 42.1319 -88.0942 139° Southeast 267 307 4,900 -1,380 Descending Chicago Center